Regional Weather Roundup
Issued by NWS

Home | Current Version | Previous Version | Text Only | Print | Product List | Glossary Off
Versions: 1 2 3 4 5 6 7 8 9 10 11 12 13 14 15 16 17 18 19 20 21 22 23 24 25 26 27 28 29 30 31 32 33 34 35 36 37 38 39 40 41 42 43 44 45 46 47 48 49 50

959
ASUS43 KLSX 291757
RWRMO

WEATHER SUMMARY FOR MISSOURI
NATIONAL WEATHER SERVICE SPRINGFIELD MO
100 PM CDT FRI APR 29 2016

NOTE: "FAIR" INDICATES FEW OR NO CLOUDS BELOW 12,000 FEET WITH NO
       SIGNIFICANT WEATHER AND/OR OBSTRUCTIONS TO VISIBILITY.
       CURRENT SKY AND/OR WEATHER CONDITIONS ARE NOT AVAILABLE FOR
       CHILLICOTHE AND FARMINGTON.

MOZ001>031-035>038-043-044-053-054-291900-
...NORTHERN AND WESTERN MISSOURI...

CITY           SKY/WX    TMP DP  RH WIND       PRES   REMARKS
KANSAS CTY INT CLOUDY    54  46  74 E10       30.01F
6HR MIN TEMP:  47; 6HR MAX TEMP:  54;

LEE`S SUMMIT   CLOUDY    57  47  69 E12       30.00F
6HR MIN TEMP:  49; 6HR MAX TEMP:  57;

ST JOSEPH      CLOUDY    53  45  74 NE9       30.03R
6HR MIN TEMP:  47; 6HR MAX TEMP:  53;

CHILLICOTHE      N/A     55  47  74 E9        30.06F
6HR MIN TEMP:  48; 6HR MAX TEMP:  57;


$$
MOZ066>068-077>081-088>096-101>105-291900-
...SOUTHWEST MISSOURI...

CITY           SKY/WX    TMP DP  RH WIND       PRES   REMARKS
SPRINGFIELD    CLOUDY    62  53  72 SE16      29.91R
6HR MIN TEMP:  52; 6HR MAX TEMP:  63; 6HR PCP:  0.22;

BRANSON        CLOUDY    55  54  94 E17G24    29.91F

$$
MOZ032>034-039>042-045>050-055>058-069>072-291900-
...CENTRAL MISSOURI...

CITY           SKY/WX    TMP DP  RH WIND       PRES   REMARKS
COLUMBIA       NOT AVBL
JEFFERSON CITY CLOUDY    59  48  67 NE10      30.00F
6HR MIN TEMP:  51; 6HR MAX TEMP:  59;

ROLLA          CLOUDY    56  50  80 E12       29.97F
6HR MIN TEMP:  50; 6HR MAX TEMP:  56;

SEDALIA        CLOUDY    62  51  67 NE9       30.00F
6HR MIN TEMP:  49; 6HR MAX TEMP:  62;

WARRENSBURG    CLOUDY    61  50  67 NE12      29.99F

$$
MOZ051-052-059>065-291900-
...EAST CENTRAL MISSOURI...

CITY           SKY/WX    TMP DP  RH WIND       PRES   REMARKS
ST LOUIS INTL  CLOUDY    63  48  58 E8        30.05F
6HR MIN TEMP:  55; 6HR MAX TEMP:  63;


$$
MOZ072>076-082>087-097>100-106>115-291900-
...SOUTH CENTRAL AND SOUTHEAST MISSOURI...

CITY           SKY/WX    TMP DP  RH WIND       PRES   REMARKS
CAPE GIRARDEAU LGT RAIN  61  55  81 CALM      30.05R
6HR MIN TEMP:  57; 6HR MAX TEMP:  62; 6HR PCP:  0.01;

POPLAR BLUFF   RAIN      57  55  93 CALM      30.06F FOG
6HR MIN TEMP:  57; 6HR MAX TEMP:  59; 6HR PCP:  0.26;

WEST PLAINS    LGT RAIN  55  51  86 E16G30    29.93F
6HR MIN TEMP:  53; 6HR MAX TEMP:  55;


$$



USA.gov is the U.S. government's official web portal to all federal, state and local government web resources and services.